| time (UTC) | temp F | wind direction | speed MPH | gust MPH | rain 1hr in | rain 24hr in | rain mn in | humidity % | barometer mb |
| 20260510122034 | 55 | 10 | 2.0 | 3.0 | 0.00 | 0.00 | 0.00 | 77 | 1011.6 |
| 20260510121434 | 54 | 3 | 0.0 | 0.0 | 0.00 | 0.00 | 0.00 | 80 | 1011.3 |
| 20260510120834 | 54 | 321 | 0.0 | 1.0 | 0.00 | 0.00 | 0.00 | 83 | 1011.0 |
| 20260510120234 | 53 | 318 | 0.0 | 1.0 | 0.00 | 0.00 | 0.00 | 83 | 1011.0 |
| 20260510115734 | 52 | 312 | 0.0 | 0.0 | 0.00 | 0.00 | 0.00 | 86 | 1011.1 |
| 20260510115134 | 52 | 312 | 0.0 | 0.0 | 0.00 | 0.00 | 0.00 | 86 | 1010.7 |
| 20260510114534 | 52 | 312 | 0.0 | 1.0 | 0.00 | 0.00 | 0.00 | 87 | 1010.5 |
| 20260510113934 | 51 | 312 | 0.0 | 0.0 | 0.00 | 0.00 | 0.00 | 89 | 1010.6 |
| 20260510113434 | 51 | 312 | 0.0 | 0.0 | 0.00 | 0.00 | 0.00 | 90 | 1010.4 |
| 20260510112834 | 51 | 308 | 0.0 | 0.0 | 0.00 | 0.00 | 0.00 | 92 | 1010.3 |
| 20260510112234 | 50 | 308 | 0.0 | 0.0 | 0.00 | 0.00 | 0.00 | 91 | 1009.9 |
| 20260510111634 | 50 | 308 | 0.0 | 0.0 | 0.00 | 0.00 | 0.00 | 91 | 1009.6 |
| 20260510111034 | 50 | 308 | 0.0 | 0.0 | 0.00 | 0.00 | 0.00 | 92 | 1009.8 |
| 20260510110434 | 51 | 308 | 0.0 | 0.0 | 0.00 | 0.00 | 0.00 | 92 | 1009.5 |
| 20260510105834 | 50 | 308 | 0.0 | 0.0 | 0.00 | 0.00 | 0.00 | 93 | 1009.6 |
| 20260510105234 | 50 | 308 | 0.0 | 0.0 | 0.00 | 0.00 | 0.00 | 93 | 1009.3 |
| 20260510104634 | 51 | 308 | 0.0 | 0.0 | 0.00 | 0.00 | 0.00 | 92 | 1009.2 |
| 20260510104034 | 51 | 308 | 0.0 | 0.0 | 0.00 | 0.00 | 0.00 | 92 | 1009.0 |
| 20260510103434 | 51 | 308 | 0.0 | 0.0 | 0.00 | 0.00 | 0.00 | 91 | 1008.8 |
| 20260510102834 | 51 | 308 | 0.0 | 0.0 | 0.00 | 0.00 | 0.00 | 91 | 1008.6 |
| 20260510102234 | 52 | 308 | 0.0 | 0.0 | 0.00 | 0.00 | 0.00 | 90 | 1008.7 |
| 20260510101035 | 52 | 308 | 0.0 | 0.0 | 0.00 | 0.00 | 0.00 | 89 | 1008.7 |
| 20260510100012 | 53 | 308 | 0.0 | 0.0 | 0.00 | 0.00 | 0.00 | 89 | 1008.2 |
| 20260510095451 | 54 | 308 | 0.0 | 0.0 | 0.00 | 0.00 | 0.00 | 89 | 1008.0 |
| 20260510094934 | 53 | 308 | 0.0 | 0.0 | 0.00 | 0.00 | 0.00 | 88 | 1007.9 |
| 20260510094427 | 53 | 308 | 0.0 | 0.0 | 0.00 | 0.00 | 0.00 | 89 | 1007.7 |
| 20260510093908 | 54 | 308 | 0.0 | 0.0 | 0.00 | 0.00 | 0.00 | 89 | 1007.6 |
| 20260510093348 | 53 | 302 | 0.0 | 0.0 | 0.00 | 0.00 | 0.00 | 91 | 1007.5 |
| 20260510092308 | 53 | 172 | 0.0 | 0.0 | 0.00 | 0.00 | 0.00 | 95 | 1007.2 |
| 20260510090708 | 53 | 262 | 0.0 | 0.0 | 0.00 | 0.00 | 0.00 | 95 | 1007.1 |
| 20260510090148 | 53 | 289 | 0.0 | 0.0 | 0.00 | 0.00 | 0.00 | 95 | 1007.3 |
| 20260510085628 | 53 | 289 | 0.0 | 0.0 | 0.00 | 0.00 | 0.00 | 94 | 1007.5 |
| 20260510085108 | 54 | 289 | 0.0 | 0.0 | 0.00 | 0.00 | 0.00 | 94 | 1007.4 |
| 20260510084548 | 54 | 289 | 0.0 | 0.0 | 0.00 | 0.00 | 0.00 | 93 | 1007.3 |
| 20260510084028 | 54 | 289 | 0.0 | 0.0 | 0.00 | 0.00 | 0.00 | 93 | 1007.2 |
| 20260510083509 | 54 | 289 | 0.0 | 0.0 | 0.00 | 0.00 | 0.00 | 93 | 1007.3 |
| 20260510082948 | 54 | 289 | 0.0 | 0.0 | 0.00 | 0.00 | 0.00 | 92 | 1007.2 |
| 20260510082428 | 55 | 289 | 0.0 | 1.0 | 0.00 | 0.00 | 0.00 | 91 | 1007.3 |
| 20260510081908 | 55 | 289 | 0.0 | 0.0 | 0.00 | 0.00 | 0.00 | 91 | 1006.8 |
| 20260510081348 | 56 | 289 | 0.0 | 0.0 | 0.00 | 0.00 | 0.00 | 89 | 1007.0 |
| 20260510080828 | 56 | 289 | 0.0 | 0.0 | 0.00 | 0.00 | 0.00 | 88 | 1006.9 |
| 20260510080309 | 57 | 289 | 1.0 | 1.0 | 0.00 | 0.00 | 0.00 | 86 | 1007.2 |
| 20260510075748 | 57 | 289 | 1.0 | 1.0 | 0.00 | 0.00 | 0.00 | 84 | 1007.6 |
| 20260510075228 | 58 | 288 | 0.0 | 0.0 | 0.00 | 0.00 | 0.00 | 84 | 1007.7 |
| 20260510074708 | 59 | 288 | 0.0 | 0.0 | 0.00 | 0.00 | 0.00 | 80 | 1007.8 |
| 20260510074148 | 60 | 288 | 1.0 | 2.0 | 0.00 | 0.00 | 0.00 | 76 | 1008.0 |
| 20260510073628 | 60 | 289 | 0.0 | 0.0 | 0.00 | 0.00 | 0.00 | 74 | 1007.8 |
| 20260510073108 | 60 | 259 | 3.0 | 4.0 | 0.00 | 0.00 | 0.00 | 71 | 1007.9 |
| 20260510072548 | 61 | 246 | 2.0 | 3.0 | 0.00 | 0.00 | 0.00 | 72 | 1008.0 |
| 20260510072028 | 62 | 238 | 2.0 | 3.0 | 0.00 | 0.00 | 0.00 | 71 | 1007.7 |
| 20260510071509 | 61 | 253 | 0.0 | 1.0 | 0.00 | 0.00 | 0.00 | 70 | 1007.6 |
| 20260510070948 | 62 | 252 | 0.0 | 1.0 | 0.00 | 0.00 | 0.00 | 70 | 1007.6 |
| 20260510070428 | 62 | 301 | 1.0 | 2.0 | 0.00 | 0.00 | 0.00 | 69 | 1007.5 |
| 20260510065348 | 61 | 241 | 0.0 | 0.0 | 0.00 | 0.01 | 0.00 | 74 | 1007.2 |
| 20260510064832 | 61 | 241 | 0.0 | 1.0 | 0.00 | 0.01 | 0.00 | 75 | 1007.2 |
| 20260510064308 | 60 | 298 | 4.0 | 6.0 | 0.00 | 0.02 | 0.00 | 80 | 1007.3 |
| 20260510063748 | 60 | 338 | 0.0 | 0.0 | 0.00 | 0.02 | 0.00 | 84 | 1007.0 |
| 20260510063228 | 60 | 338 | 0.0 | 1.0 | 0.00 | 0.03 | 0.00 | 85 | 1006.9 |
| 20260510062708 | 59 | 338 | 0.0 | 1.0 | 0.00 | 0.03 | 0.00 | 87 | 1006.8 |
| 20260510061628 | 59 | 338 | 2.0 | 2.0 | 0.00 | 0.05 | 0.00 | 93 | 1006.4 |
| 20260510061109 | 59 | 338 | 0.0 | 0.0 | 0.00 | 0.06 | 0.00 | 93 | 1006.3 |
| 20260510060548 | 59 | 338 | 0.0 | 0.0 | 0.00 | 0.07 | 0.00 | 92 | 1006.2 |
| 20260510060029 | 59 | 338 | 0.0 | 0.0 | 0.00 | 0.08 | 0.00 | 92 | 1006.2 |
| 20260510055508 | 59 | 338 | 0.0 | 0.0 | 0.00 | 0.09 | 0.00 | 92 | 1006.3 |
| 20260510054948 | 60 | 338 | 0.0 | 0.0 | 0.00 | 0.10 | 0.00 | 91 | 1006.3 |
| 20260510054434 | 60 | 338 | 0.0 | 0.0 | 0.00 | 0.10 | 0.00 | 91 | 1006.4 |
| 20260510053834 | 59 | 338 | 0.0 | 1.0 | 0.00 | 0.11 | 0.00 | 90 | 1006.1 |
| 20260510053234 | 59 | 338 | 0.0 | 0.0 | 0.00 | 0.11 | 0.00 | 89 | 1006.0 |
| 20260510052634 | 59 | 338 | 0.0 | 0.0 | 0.00 | 0.12 | 0.00 | 89 | 1006.1 |
| 20260510051524 | 59 | 338 | 0.0 | 0.0 | 0.00 | 0.12 | 0.00 | 88 | 1005.8 |
| 20260510051006 | 59 | 338 | 0.0 | 0.0 | 0.00 | 0.13 | 0.00 | 88 | 1005.9 |
| 20260510050434 | 59 | 338 | 0.0 | 0.0 | 0.00 | 0.13 | 0.00 | 88 | 1006.0 |
| 20260510045834 | 60 | 338 | 0.0 | 1.0 | 0.00 | 0.13 | 0.13 | 87 | 1005.8 |
| 20260510045233 | 59 | 338 | 0.0 | 0.0 | 0.00 | 0.13 | 0.13 | 87 | 1005.8 |
| 20260510044633 | 59 | 339 | 0.0 | 0.0 | 0.00 | 0.13 | 0.13 | 88 | 1005.9 |
| 20260510044033 | 59 | 338 | 0.0 | 1.0 | 0.00 | 0.13 | 0.13 | 90 | 1005.8 |
| 20260510043434 | 58 | 288 | 0.0 | 0.0 | 0.00 | 0.13 | 0.13 | 93 | 1005.9 |
| 20260510042833 | 59 | 288 | 0.0 | 0.0 | 0.00 | 0.13 | 0.13 | 95 | 1005.6 |
| 20260510042233 | 57 | 244 | 0.0 | 0.0 | 0.00 | 0.13 | 0.13 | 96 | 1005.5 |
| 20260510041633 | 57 | 244 | 0.0 | 0.0 | 0.00 | 0.13 | 0.13 | 97 | 1005.4 |
| 20260510040434 | 57 | 244 | 0.0 | 0.0 | 0.00 | 0.13 | 0.13 | 96 | 1005.6 |
| 20260510035833 | 57 | 244 | 0.0 | 0.0 | 0.00 | 0.13 | 0.13 | 96 | 1005.5 |
| 20260510035234 | 57 | 244 | 0.0 | 0.0 | 0.00 | 0.13 | 0.13 | 96 | 1005.4 |
| 20260510034633 | 57 | 244 | 0.0 | 0.0 | 0.00 | 0.13 | 0.13 | 96 | 1005.5 |
| 20260510034033 | 57 | 244 | 0.0 | 0.0 | 0.00 | 0.14 | 0.13 | 95 | 1005.6 |
| 20260510033433 | 57 | 244 | 0.0 | 0.0 | 0.00 | 0.14 | 0.13 | 95 | 1005.5 |
| 20260510032833 | 58 | 244 | 0.0 | 0.0 | 0.00 | 0.14 | 0.13 | 95 | 1005.5 |
| 20260510032233 | 58 | 244 | 0.0 | 0.0 | 0.00 | 0.14 | 0.13 | 96 | 1005.5 |
| 20260510031633 | 57 | 244 | 0.0 | 0.0 | 0.00 | 0.15 | 0.13 | 96 | 1005.4 |
| 20260510030433 | 58 | 244 | 0.0 | 0.0 | 0.00 | 0.15 | 0.13 | 96 | 1005.6 |
| 20260510025834 | 58 | 244 | 0.0 | 0.0 | 0.00 | 0.16 | 0.13 | 95 | 1005.5 |
| 20260510025233 | 58 | 244 | 0.0 | 0.0 | 0.00 | 0.16 | 0.13 | 95 | 1005.5 |
| 20260510024633 | 58 | 244 | 0.0 | 0.0 | 0.00 | 0.16 | 0.13 | 94 | 1005.3 |
| 20260510024034 | 59 | 244 | 0.0 | 0.0 | 0.00 | 0.17 | 0.13 | 94 | 1005.5 |
| 20260510023433 | 59 | 244 | 0.0 | 0.0 | 0.00 | 0.17 | 0.13 | 93 | 1005.1 |
| 20260510022833 | 59 | 244 | 0.0 | 0.0 | 0.00 | 0.17 | 0.13 | 93 | 1005.2 |
| 20260510021633 | 59 | 244 | 0.0 | 0.0 | 0.00 | 0.18 | 0.13 | 93 | 1005.1 |
| 20260510021034 | 59 | 244 | 0.0 | 0.0 | 0.00 | 0.18 | 0.13 | 93 | 1004.9 |
| 20260510020434 | 59 | 244 | 0.0 | 0.0 | 0.00 | 0.19 | 0.13 | 92 | 1005.0 |
| 20260510015834 | 60 | 244 | 0.0 | 0.0 | 0.00 | 0.19 | 0.13 | 91 | 1004.8 |
| 20260510015233 | 60 | 244 | 0.0 | 0.0 | 0.00 | 0.19 | 0.13 | 91 | 1004.8 |
| 20260510014634 | 60 | 244 | 0.0 | 0.0 | 0.00 | 0.19 | 0.13 | 90 | 1004.7 |
| 20260510014033 | 61 | 244 | 0.0 | 0.0 | 0.00 | 0.19 | 0.13 | 90 | 1004.3 |
| 20260510013434 | 61 | 244 | 0.0 | 0.0 | 0.00 | 0.19 | 0.13 | 88 | 1004.2 |
| 20260510012834 | 61 | 244 | 0.0 | 0.0 | 0.00 | 0.19 | 0.13 | 87 | 1004.2 |
| 20260510012325 | 61 | 244 | 0.0 | 0.0 | 0.00 | 0.19 | 0.13 | 85 | 1004.1 |
| 20260510011805 | 63 | 243 | 0.0 | 0.0 | 0.00 | 0.19 | 0.13 | 85 | 1004.2 |
| 20260510010134 | 64 | 244 | 0.0 | 0.0 | 0.00 | 0.21 | 0.13 | 80 | 1003.9 |
| 20260510005628 | 65 | 244 | 0.0 | 0.0 | 0.00 | 0.21 | 0.13 | 78 | 1003.8 |
| 20260510005109 | 66 | 243 | 0.0 | 0.0 | 0.00 | 0.21 | 0.13 | 75 | 1003.7 |
| 20260510004548 | 68 | 244 | 0.0 | 0.0 | 0.00 | 0.21 | 0.13 | 74 | 1003.9 |
| 20260510004033 | 68 | 244 | 0.0 | 0.0 | 0.00 | 0.22 | 0.13 | 72 | 1003.8 |
| 20260510003433 | 69 | 244 | 0.0 | 1.0 | 0.00 | 0.22 | 0.13 | 72 | 1003.8 |
| 20260510002234 | 70 | 244 | 2.0 | 2.0 | 0.00 | 0.22 | 0.13 | 68 | 1003.8 |
| 20260510001634 | 70 | 241 | 2.0 | 3.0 | 0.00 | 0.23 | 0.13 | 67 | 1003.6 |
| 20260510001125 | 71 | 249 | 1.0 | 2.0 | 0.00 | 0.23 | 0.13 | 66 | 1003.6 |
| 20260510000045 | 72 | 251 | 2.0 | 3.0 | 0.00 | 0.25 | 0.13 | 69 | 1003.5 |
| 20260509235524 | 72 | 235 | 3.0 | 4.0 | 0.00 | 0.25 | 0.13 | 68 | 1003.3 |
| 20260509234445 | 73 | 253 | 2.0 | 2.0 | 0.00 | 0.25 | 0.13 | 68 | 1003.4 |
| 20260509233925 | 72 | 290 | 5.0 | 6.0 | 0.00 | 0.25 | 0.13 | 65 | 1003.3 |
| 20260509233405 | 72 | 279 | 3.0 | 4.0 | 0.00 | 0.25 | 0.13 | 67 | 1003.4 |
| 20260509232845 | 72 | 275 | 4.0 | 5.0 | 0.00 | 0.26 | 0.13 | 67 | 1003.5 |
| 20260509231805 | 73 | 243 | 3.0 | 4.0 | 0.00 | 0.26 | 0.13 | 68 | 1003.1 |
| 20260509231244 | 72 | 245 | 7.0 | 8.0 | 0.00 | 0.26 | 0.13 | 67 | 1003.1 |
| 20260509230725 | 73 | 245 | 3.0 | 5.0 | 0.00 | 0.26 | 0.13 | 68 | 1003.2 |
| 20260509230205 | 72 | 286 | 4.0 | 4.0 | 0.00 | 0.26 | 0.13 | 69 | 1003.3 |
| 20260509225644 | 72 | 254 | 5.0 | 6.0 | 0.00 | 0.27 | 0.13 | 69 | 1003.0 |
| 20260509225125 | 72 | 259 | 5.0 | 6.0 | 0.00 | 0.27 | 0.13 | 68 | 1003.2 |
| 20260509224605 | 72 | 242 | 9.0 | 11.0 | 0.00 | 0.27 | 0.13 | 66 | 1003.4 |
| 20260509224044 | 72 | 244 | 3.0 | 5.0 | 0.00 | 0.27 | 0.13 | 68 | 1003.5 |
| 20260509223525 | 73 | 241 | 5.0 | 6.0 | 0.00 | 0.27 | 0.13 | 64 | 1003.3 |
| 20260509223006 | 72 | 248 | 4.0 | 6.0 | 0.00 | 0.28 | 0.13 | 64 | 1003.3 |
| 20260509222445 | 72 | 280 | 5.0 | 5.0 | 0.00 | 0.28 | 0.13 | 66 | 1003.1 |
| 20260509221924 | 73 | 269 | 8.0 | 10.0 | 0.00 | 0.29 | 0.13 | 66 | 1003.1 |
| 20260509221405 | 73 | 264 | 7.0 | 9.0 | 0.00 | 0.29 | 0.13 | 66 | 1003.1 |
| 20260509220844 | 73 | 243 | 6.0 | 8.0 | 0.00 | 0.29 | 0.13 | 66 | 1003.0 |
| 20260509220325 | 73 | 242 | 7.0 | 9.0 | 0.00 | 0.29 | 0.13 | 65 | 1003.1 |
| 20260509215806 | 73 | 296 | 6.0 | 9.0 | 0.00 | 0.29 | 0.13 | 63 | 1003.3 |
| 20260509215244 | 73 | 269 | 7.0 | 9.0 | 0.00 | 0.29 | 0.13 | 62 | 1003.3 |
| 20260509214725 | 73 | 249 | 7.0 | 10.0 | 0.00 | 0.29 | 0.13 | 62 | 1003.2 |
| 20260509213645 | 73 | 265 | 6.0 | 8.0 | 0.00 | 0.29 | 0.13 | 61 | 1003.1 |
| 20260509213125 | 73 | 244 | 8.0 | 10.0 | 0.00 | 0.29 | 0.13 | 65 | 1003.1 |
| 20260509212605 | 73 | 233 | 5.0 | 5.0 | 0.00 | 0.29 | 0.13 | 66 | 1003.1 |
| 20260509212045 | 73 | 287 | 5.0 | 5.0 | 0.00 | 0.29 | 0.13 | 65 | 1003.1 |
| 20260509211007 | 73 | 237 | 4.0 | 5.0 | 0.00 | 0.29 | 0.13 | 69 | 1003.2 |
| 20260509210429 | 73 | 255 | 10.0 | 11.0 | 0.00 | 0.30 | 0.13 | 69 | 1002.9 |
| 20260509205909 | 72 | 267 | 8.0 | 10.0 | 0.00 | 0.30 | 0.13 | 66 | 1002.9 |
| 20260509205349 | 72 | 252 | 8.0 | 9.0 | 0.00 | 0.30 | 0.13 | 68 | 1003.1 |
| 20260509204829 | 73 | 278 | 6.0 | 8.0 | 0.00 | 0.30 | 0.13 | 69 | 1003.1 |
| 20260509204309 | 72 | 287 | 6.0 | 8.0 | 0.00 | 0.31 | 0.13 | 67 | 1003.0 |
| 20260509203229 | 72 | 276 | 5.0 | 6.0 | 0.00 | 0.31 | 0.13 | 72 | 1003.2 |
| 20260509202709 | 72 | 235 | 8.0 | 10.0 | 0.00 | 0.31 | 0.13 | 71 | 1002.7 |
| 20260509202149 | 72 | 238 | 4.0 | 5.0 | 0.00 | 0.31 | 0.13 | 72 | 1002.9 |
| 20260509201629 | 72 | 184 | 5.0 | 5.0 | 0.00 | 0.31 | 0.13 | 72 | 1002.9 |
| 20260509201109 | 72 | 267 | 8.0 | 9.0 | 0.00 | 0.31 | 0.13 | 70 | 1003.0 |
| 20260509200549 | 72 | 242 | 9.0 | 10.0 | 0.00 | 0.31 | 0.13 | 70 | 1003.0 |
| 20260509200029 | 71 | 270 | 6.0 | 8.0 | 0.00 | 0.31 | 0.13 | 73 | 1002.9 |
| 20260509195509 | 72 | 237 | 10.0 | 11.0 | 0.00 | 0.31 | 0.13 | 70 | 1003.2 |
| 20260509194949 | 71 | 210 | 9.0 | 10.0 | 0.00 | 0.31 | 0.13 | 70 | 1003.4 |
| 20260509194429 | 71 | 249 | 9.0 | 10.0 | 0.00 | 0.31 | 0.13 | 70 | 1003.2 |
| 20260509193909 | 71 | 223 | 5.0 | 8.0 | 0.00 | 0.31 | 0.13 | 70 | 1003.3 |
| 20260509193349 | 71 | 259 | 6.0 | 9.0 | 0.00 | 0.31 | 0.13 | 74 | 1003.5 |
| 20260509191749 | 69 | 196 | 2.0 | 3.0 | 0.00 | 0.31 | 0.13 | 76 | 1003.2 |
| 20260509191229 | 69 | 240 | 4.0 | 6.0 | 0.00 | 0.31 | 0.13 | 77 | 1003.3 |
| 20260509190709 | 69 | 221 | 8.0 | 12.0 | 0.00 | 0.31 | 0.13 | 75 | 1003.3 |
| 20260509190149 | 69 | 210 | 2.0 | 4.0 | 0.00 | 0.31 | 0.13 | 79 | 1003.7 |
| 20260509185629 | 69 | 218 | 6.0 | 6.0 | 0.00 | 0.31 | 0.13 | 76 | 1003.7 |
| 20260509185109 | 69 | 270 | 7.0 | 8.0 | 0.00 | 0.31 | 0.13 | 74 | 1003.6 |
| 20260509184549 | 69 | 238 | 7.0 | 9.0 | 0.00 | 0.31 | 0.13 | 78 | 1003.6 |
| 20260509184029 | 68 | 245 | 5.0 | 6.0 | 0.00 | 0.31 | 0.13 | 78 | 1003.5 |
| 20260509183510 | 68 | 232 | 2.0 | 3.0 | 0.00 | 0.31 | 0.13 | 81 | 1003.8 |
| 20260509182949 | 68 | 238 | 3.0 | 5.0 | 0.00 | 0.31 | 0.13 | 80 | 1003.6 |
| 20260509181910 | 67 | 227 | 6.0 | 8.0 | 0.00 | 0.31 | 0.13 | 79 | 1003.6 |
| 20260509180310 | 67 | 223 | 6.0 | 11.0 | 0.00 | 0.31 | 0.13 | 81 | 1003.9 |
| 20260509175229 | 66 | 194 | 3.0 | 4.0 | 0.00 | 0.31 | 0.13 | 81 | 1003.8 |
| 20260509174710 | 66 | 191 | 1.0 | 2.0 | 0.00 | 0.31 | 0.13 | 83 | 1003.8 |
| 20260509173629 | 66 | 251 | 8.0 | 11.0 | 0.00 | 0.31 | 0.13 | 84 | 1003.8 |
| 20260509173110 | 66 | 216 | 4.0 | 5.0 | 0.00 | 0.31 | 0.13 | 83 | 1004.1 |
| 20260509172549 | 66 | 226 | 3.0 | 5.0 | 0.00 | 0.31 | 0.13 | 85 | 1004.1 |
| 20260509171510 | 64 | 215 | 5.0 | 6.0 | 0.00 | 0.31 | 0.13 | 85 | 1004.4 |
| 20260509170949 | 64 | 238 | 4.0 | 8.0 | 0.00 | 0.31 | 0.13 | 86 | 1004.1 |
| 20260509170429 | 64 | 228 | 4.0 | 5.0 | 0.00 | 0.31 | 0.13 | 86 | 1004.2 |
| 20260509165909 | 64 | 197 | 7.0 | 8.0 | 0.00 | 0.31 | 0.13 | 84 | 1004.1 |
| 20260509165349 | 63 | 203 | 5.0 | 8.0 | 0.00 | 0.31 | 0.13 | 87 | 1004.1 |
| 20260509164829 | 63 | 212 | 3.0 | 4.0 | 0.00 | 0.31 | 0.13 | 86 | 1004.3 |
| 20260509164310 | 63 | 220 | 3.0 | 5.0 | 0.00 | 0.31 | 0.13 | 86 | 1004.3 |
| 20260509163749 | 63 | 227 | 5.0 | 6.0 | 0.00 | 0.31 | 0.13 | 87 | 1004.3 |
| 20260509163229 | 63 | 189 | 7.0 | 10.0 | 0.00 | 0.31 | 0.13 | 87 | 1004.3 |
| 20260509162710 | 62 | 226 | 6.0 | 8.0 | 0.00 | 0.31 | 0.13 | 88 | 1004.2 |
| 20260509162149 | 62 | 228 | 9.0 | 11.0 | 0.00 | 0.31 | 0.13 | 87 | 1004.3 |
| 20260509161110 | 62 | 157 | 6.0 | 10.0 | 0.00 | 0.31 | 0.13 | 88 | 1004.2 |
| 20260509160030 | 61 | 248 | 4.0 | 5.0 | 0.00 | 0.31 | 0.13 | 90 | 1004.6 |
| 20260509154949 | 61 | 239 | 6.0 | 9.0 | 0.00 | 0.31 | 0.13 | 90 | 1004.2 |
| 20260509154429 | 61 | 186 | 4.0 | 5.0 | 0.00 | 0.31 | 0.13 | 91 | 1004.4 |
| 20260509153910 | 61 | 193 | 3.0 | 4.0 | 0.00 | 0.31 | 0.13 | 91 | 1004.2 |
| 20260509153349 | 60 | 233 | 4.0 | 6.0 | 0.00 | 0.31 | 0.13 | 91 | 1004.2 |
| 20260509152829 | 59 | 225 | 2.0 | 3.0 | 0.00 | 0.31 | 0.13 | 94 | 1004.3 |
| 20260509152310 | 60 | 204 | 2.0 | 4.0 | 0.00 | 0.31 | 0.13 | 94 | 1004.4 |
| 20260509151750 | 59 | 223 | 4.0 | 4.0 | 0.00 | 0.31 | 0.13 | 92 | 1003.9 |
| 20260509151230 | 59 | 194 | 3.0 | 4.0 | 0.00 | 0.31 | 0.13 | 94 | 1004.1 |
| 20260509150149 | 59 | 252 | 4.0 | 4.0 | 0.00 | 0.31 | 0.13 | 95 | 1004.2 |
| 20260509145630 | 58 | 222 | 7.0 | 9.0 | 0.00 | 0.31 | 0.13 | 95 | 1003.8 |
| 20260509145110 | 58 | 236 | 4.0 | 5.0 | 0.00 | 0.31 | 0.13 | 96 | 1004.0 |
| 20260509144549 | 57 | 227 | 6.0 | 9.0 | 0.00 | 0.31 | 0.13 | 97 | 1004.3 |
| 20260509143510 | 57 | 232 | 2.0 | 3.0 | 0.00 | 0.31 | 0.13 | 99 | 1004.2 |
| 20260509142429 | 56 | 153 | 4.0 | 4.0 | 0.00 | 0.31 | 0.13 | 99 | 1004.3 |
| 20260509141349 | 56 | 245 | 6.0 | 6.0 | 0.00 | 0.31 | 0.13 | 99 | 1004.1 |
| 20260509140829 | 56 | 237 | 6.0 | 8.0 | 0.00 | 0.31 | 0.13 | 99 | 1004.1 |
| 20260509140310 | 56 | 241 | 2.0 | 5.0 | 0.00 | 0.31 | 0.13 | 99 | 1004.1 |
| 20260509135749 | 55 | 209 | 4.0 | 5.0 | 0.00 | 0.31 | 0.13 | 99 | 1003.9 |
| 20260509135229 | 55 | 221 | 5.0 | 6.0 | 0.00 | 0.31 | 0.13 | 99 | 1004.1 |
| 20260509134710 | 55 | 232 | 3.0 | 6.0 | 0.00 | 0.31 | 0.13 | 99 | 1004.3 |
| 20260509134149 | 55 | 238 | 3.0 | 3.0 | 0.00 | 0.31 | 0.13 | 99 | 1004.2 |
| 20260509133633 | 54 | 232 | 2.0 | 3.0 | 0.00 | 0.31 | 0.13 | 99 | 1004.1 |
| 20260509133034 | 54 | 250 | 4.0 | 5.0 | 0.00 | 0.31 | 0.13 | 99 | 1004.3 |
| 20260509132434 | 54 | 248 | 2.0 | 4.0 | 0.00 | 0.31 | 0.13 | 99 | 1004.0 |
| 20260509131834 | 54 | 249 | 0.0 | 2.0 | 0.00 | 0.31 | 0.13 | 99 | 1004.0 |
| 20260509130034 | 53 | 246 | 3.0 | 5.0 | 0.00 | 0.31 | 0.13 | 99 | 1004.4 |
| 20260509125433 | 53 | 246 | 2.0 | 4.0 | 0.00 | 0.31 | 0.13 | 99 | 1004.3 |
| 20260509124834 | 53 | 239 | 4.0 | 5.0 | 0.00 | 0.31 | 0.13 | 99 | 1004.4 |
| 20260509124234 | 53 | 236 | 0.0 | 1.0 | 0.00 | 0.31 | 0.13 | 99 | 1004.3 |
| 20260509123633 | 52 | 242 | 3.0 | 4.0 | 0.00 | 0.31 | 0.13 | 99 | 1004.5 |
| 20260509123034 | 52 | 254 | 4.0 | 5.0 | 0.00 | 0.31 | 0.13 | 99 | 1004.2 |
| 20260509122434 | 52 | 229 | 1.0 | 4.0 | 0.00 | 0.31 | 0.13 | 99 | 1004.0 |